Eagle, CO

10:56 PM MST on November 19, 2017 (GMT -0700)
Eagle County Regional

Weather History for KEGE - January, 2013

Change the Weather History Date:

Monday, January 28, 2013

  Actual Average Record
Temperature  
Mean Temperature 27 °F -  
Max Temperature 35 °F 37 °F 51 °F (1954)
Min Temperature 19 °F 6 °F -15 °F (1973)
Degree Days  
Heating Degree Days 38    
Moisture  
Dew Point 28 °F    
Average Humidity 91    
Maximum Humidity 100    
Minimum Humidity 75    
Precipitation  
Precipitation 0.04 in - - ()
Sea Level Pressure  
Sea Level Pressure 29.70 in    
Wind  
Wind Speed 5 mph (SW)    
Max Wind Speed 14 mph    
Max Gust Speed 24 mph    
Visibility 6 miles    
Events Snow    
Averages and records for this station are not official NWS values.
T = Trace of Precipitation, MM = Missing Value Source: NWS Daily Summary

Daily Weather History Graph

Daily Weather History Graph

Search for Another Location

Airport or City:

Trip Planner

Search our weather history database for the weather conditions in past years. The results will help you decide how hot, cold, wet, or windy it might be!

Date:

Astronomy

Jan. 28, 2013 Rise Set
Actual Time 7:18 AM MST 5:23 PM MST
Civil Twilight 6:49 AM MST 5:51 PM MST
Nautical Twilight 6:17 AM MST 6:24 PM MST
Astronomical Twilight 5:45 AM MST 6:56 PM MST
Moon 7:20 PM MST (1/28) 7:46 AM MST (1/28)
Length of Visible Light 11h 02m
Length of Day
10h 04m
Full, 97% of the Moon is Illuminated
Jan 28
Full
Feb 3
Last Quarter
Feb 10
New
Feb 17
First Quarter
Feb 25
Full

Hourly Weather History & Observations

Time (MST) Temp. Windchill Dew Point Humidity Pressure Visibility Wind Dir Wind Speed Gust Speed Precip Events Conditions
12:15 AM 32.0 °F - 28.4 °F 87% 29.74 in 10.0 mi Calm Calm - N/A   Overcast
12:35 AM 30.2 °F 26.7 °F 26.6 °F 86% 29.72 in 10.0 mi ESE 3.5 mph - N/A   Overcast
12:55 AM 32.0 °F 25.6 °F 28.4 °F 87% 29.73 in 10.0 mi ENE 6.9 mph - N/A   Overcast
1:15 AM 33.8 °F 25.8 °F 26.6 °F 75% 29.75 in 10.0 mi WNW 10.4 mph - N/A   Overcast
1:35 AM 32.0 °F 26.4 °F 30.2 °F 93% 29.76 in 3.0 mi West 5.8 mph - N/A   Mostly Cloudy
1:55 AM 32.0 °F 26.4 °F 30.2 °F 93% 29.77 in 0.8 mi SSE 5.8 mph - N/A   Overcast
2:15 AM 32.0 °F 27.5 °F 30.2 °F 93% 29.75 in 4.0 mi East 4.6 mph - N/A   Overcast
2:35 AM 32.0 °F 24.2 °F 30.2 °F 93% 29.74 in 10.0 mi East 9.2 mph - N/A   Overcast
2:55 AM 32.0 °F 24.8 °F 30.2 °F 93% 29.74 in 8.0 mi ENE 8.1 mph - N/A   Overcast
3:15 AM 30.2 °F - 30.2 °F 100% 29.74 in 10.0 mi Calm Calm - 0.01 in   Overcast
3:35 AM 30.2 °F 24.3 °F 30.2 °F 100% 29.73 in 10.0 mi East 5.8 mph - 0.01 in   Overcast
3:55 AM 32.0 °F 27.5 °F 30.2 °F 93% 29.72 in 10.0 mi East 4.6 mph - 0.03 in   Overcast
4:15 AM 30.2 °F 24.3 °F 30.2 °F 100% 29.71 in 10.0 mi NE 5.8 mph - N/A   Overcast
4:55 AM 30.2 °F 22.6 °F 30.2 °F 100% 29.69 in 10.0 mi NE 8.1 mph - N/A   Mostly Cloudy
5:15 AM 32.0 °F 24.2 °F 30.2 °F 93% 29.69 in 10.0 mi East 9.2 mph - 0.01 in   Overcast
5:35 AM 32.0 °F - 30.2 °F 93% 29.68 in 8.0 mi Calm Calm - 0.01 in   Overcast
5:55 AM 32.0 °F 25.6 °F 30.2 °F 93% 29.67 in 9.0 mi ESE 6.9 mph - 0.01 in   Overcast
6:15 AM 32.0 °F - 30.2 °F 93% 29.68 in 8.0 mi Calm Calm - N/A   Overcast
6:35 AM 32.0 °F 28.7 °F 30.2 °F 93% 29.68 in 5.0 mi WNW 3.5 mph - N/A   Overcast
6:50 AM 32.0 °F 28.7 °F 30.2 °F 93% 29.68 in 3.0 mi WNW 3.5 mph - N/A Snow Light Snow
7:50 AM 32.0 °F 26.4 °F 30.2 °F 93% 29.65 in 10.0 mi East 5.8 mph - N/A   Overcast
8:50 AM 33.8 °F 25.3 °F 30.2 °F 87% 29.68 in 1.0 mi WSW 11.5 mph - N/A Snow Light Snow
9:50 AM 32.0 °F 23.6 °F 30.2 °F 93% 29.68 in 1.0 mi SSW 10.4 mph - N/A Snow Light Snow
10:50 AM 33.8 °F - 32.0 °F 93% 29.69 in 3.0 mi Calm Calm - N/A Snow Light Snow
11:30 AM 33.8 °F 25.3 °F 30.2 °F 87% 29.69 in 1.0 mi South 11.5 mph - N/A Snow Light Snow
11:50 AM 33.8 °F 27.0 °F 30.2 °F 87% 29.68 in 2.0 mi SSW 8.1 mph - N/A Snow Light Snow
12:50 PM 35.6 °F 32.8 °F 33.8 °F 93% 29.65 in 3.0 mi ENE 3.5 mph - N/A Snow Light Snow
1:50 PM 33.8 °F 26.4 °F 30.2 °F 87% 29.65 in 4.0 mi SSW 9.2 mph - N/A Snow Light Snow
2:50 PM 32.0 °F 27.5 °F 28.4 °F 87% 29.68 in 4.0 mi SW 4.6 mph - N/A Snow Light Snow
3:25 PM 30.2 °F 19.8 °F 26.6 °F 86% 29.68 in 2.0 mi SW 13.8 mph 24.2 mph N/A Snow Light Snow
3:50 PM 30.2 °F 26.7 °F 26.6 °F 86% 29.68 in 3.0 mi WSW 3.5 mph - N/A Snow Light Snow
4:20 PM 30.2 °F - 26.6 °F 86% 29.69 in 1.5 mi Calm Calm - N/A Snow Light Snow
4:25 PM 30.2 °F - 26.6 °F 86% 29.69 in 3.0 mi Calm Calm - N/A Snow Light Snow
4:50 PM 30.2 °F 26.7 °F 26.6 °F 86% 29.68 in 7.0 mi NNW 3.5 mph - N/A   Mostly Cloudy
5:50 PM 30.2 °F 21.9 °F 24.8 °F 80% 29.67 in 7.0 mi West 9.2 mph - N/A   Overcast
7:55 PM 26.6 °F 18.2 °F 23.0 °F 86% 29.68 in 7.0 mi West 8.1 mph - N/A Snow Light Snow
8:30 PM 24.8 °F 16.1 °F 21.2 °F 86% 29.68 in 2.0 mi West 8.1 mph - N/A Snow Light Snow
8:55 PM 23.0 °F 10.6 °F 21.2 °F 93% 29.68 in 3.0 mi West 13.8 mph - N/A Snow Light Snow
9:10 PM 21.2 °F 8.9 °F 19.4 °F 93% 29.69 in 1.2 mi West 12.7 mph - N/A Snow Light Snow
9:50 PM 21.2 °F 9.5 °F 19.4 °F 93% 29.71 in 1.2 mi West 11.5 mph - N/A Snow Light Snow
10:50 PM 19.4 °F 9.5 °F 17.6 °F 93% 29.73 in 3.0 mi WSW 8.1 mph - N/A Snow Light Snow
11:15 PM 19.4 °F 9.5 °F 17.6 °F 93% 29.74 in 10.0 mi West 8.1 mph - N/A   Overcast
11:35 PM 19.4 °F 10.4 °F 17.6 °F 93% 29.75 in 1.8 mi NE 6.9 mph - N/A   Overcast